Weather History for Syracuse, NY

Change the Weather History Date:

Sunday, November 6, 2011

  Actual Average Record
Temperature  
Mean Temperature 44 °F 44 °F  
Max Temperature 61 °F 52 °F 73 °F (1975)
Min Temperature 27 °F 36 °F 19 °F (1995)
Degree Days  
Heating Degree Days 21 21  
Month to date heating degree days 116 122  
Since 1 July heating degree days 562 739  
Cooling Degree Days 0 0  
Month to date cooling degree days 0 0  
Year to date cooling degree days 911 569  
Moisture  
Dew Point 23 °F    
Average Humidity 49    
Maximum Humidity 75    
Minimum Humidity 22    
Precipitation  
Precipitation 0.00 in 0.12 in 1.57 in (1948)
Month to date precipitation 0.01 0.72  
Year to date precipitation 42.21 32.44  
Snow  
Snow 0.00 in 0.20 in 11.90 in (1973)
Month to date snowfall 0.0 0.8  
Since 1 July snowfall T 1.2  
Since 1 September snowfall T 1.2  
Snow Depth 0.00 in    
Sea Level Pressure  
Sea Level Pressure 30.34 in    
Wind  
Wind Speed 6 mph (South)    
Max Wind Speed 14 mph    
Max Gust Speed 17 mph    
Visibility 10 miles    
Events      
T = Trace of Precipitation, MM = Missing Value Source: NWS Daily Summary

Daily Weather History Graph

Daily Weather History Graph

Search for Another Location

Airport:

Trip Planner

Search our weather history database for the weather conditions in past years. The results will help you decide how hot, cold, wet, or windy it might be!

Date:

Astronomy

Nov. 06, 2011 Rise Set
Actual Time 6:45 AM EST 4:50 PM EST
Civil Twilight 6:15 AM EST 5:20 PM EST
Nautical Twilight 5:41 AM EST 5:54 PM EST
Astronomical Twilight 5:08 AM EST 6:27 PM EST
Moon 2:37 PM EST (11/6) 2:44 AM EST (11/6)
Length of Visible Light 11h 04m
Length of Day
10h 05m
Waxing Gibbous, 85% of the Moon is Illuminated
Nov 6
Waxing Gibbous
Nov 10
Full
Nov 18
Last Quarter
Nov 25
New
Dec 2
First Quarter

Hourly Weather History & Observations

Time (EST) Temp. Windchill Dew Point Humidity Pressure Visibility Wind Dir Wind Speed Gust Speed Precip Events Conditions
12:54 AM 30.9 °F 26.2 °F 21.9 °F 69% 30.40 in 10.0 mi ESE 4.6 mph - N/A   Clear
1:54 AM 30.0 °F 26.5 °F 21.9 °F 72% 30.39 in 10.0 mi East 3.5 mph - N/A   Partly Cloudy
1:54 AM 30.9 °F 26.2 °F 21.0 °F 67% 30.39 in 10.0 mi ESE 4.6 mph - N/A   Partly Cloudy
2:54 AM 28.0 °F - 21.0 °F 75% 30.39 in 10.0 mi Calm Calm - N/A   Partly Cloudy
3:54 AM 33.1 °F 27.7 °F 19.0 °F 56% 30.38 in 10.0 mi South 5.8 mph - N/A   Partly Cloudy
4:54 AM 28.9 °F 22.8 °F 19.9 °F 69% 30.40 in 10.0 mi SSE 5.8 mph - N/A   Clear
5:54 AM 30.9 °F 27.5 °F 19.9 °F 64% 30.40 in 10.0 mi Variable 3.5 mph - N/A   Clear
6:54 AM 30.9 °F - 19.0 °F 61% 30.41 in 10.0 mi Calm Calm - N/A   Partly Cloudy
7:54 AM 36.0 °F 32.1 °F 24.1 °F 62% 30.42 in 10.0 mi Variable 4.6 mph - N/A   Partly Cloudy
8:54 AM 46.0 °F 41.9 °F 24.1 °F 42% 30.41 in 10.0 mi SSW 8.1 mph - N/A   Partly Cloudy
9:54 AM 50.0 °F - 23.0 °F 35% 30.40 in 10.0 mi SW 9.2 mph - N/A   Partly Cloudy
10:54 AM 55.0 °F - 24.1 °F 30% 30.39 in 10.0 mi South 6.9 mph - N/A   Partly Cloudy
11:54 AM 55.9 °F - 21.9 °F 27% 30.36 in 10.0 mi SSW 4.6 mph - N/A   Partly Cloudy
12:54 PM 59.0 °F - 21.0 °F 23% 30.32 in 10.0 mi SW 5.8 mph - N/A   Scattered Clouds
1:54 PM 60.1 °F - 21.9 °F 23% 30.29 in 10.0 mi South 5.8 mph - N/A   Scattered Clouds
2:54 PM 60.1 °F - 24.1 °F 25% 30.28 in 10.0 mi SSW 9.2 mph - N/A   Scattered Clouds
3:54 PM 57.9 °F - 24.1 °F 27% 30.27 in 10.0 mi SW 11.5 mph - N/A   Scattered Clouds
4:54 PM 53.1 °F - 26.1 °F 35% 30.26 in 10.0 mi South 8.1 mph - N/A   Scattered Clouds
5:54 PM 52.0 °F - 25.0 °F 35% 30.27 in 10.0 mi South 4.6 mph - N/A   Scattered Clouds
6:54 PM 50.0 °F - 25.0 °F 38% 30.27 in 10.0 mi SSW 6.9 mph - N/A   Scattered Clouds
7:54 PM 48.0 °F - 25.0 °F 41% 30.29 in 10.0 mi Calm Calm - N/A   Scattered Clouds
8:54 PM 43.0 °F 40.3 °F 26.1 °F 51% 30.28 in 10.0 mi South 4.6 mph - N/A   Scattered Clouds
9:54 PM 46.0 °F 41.9 °F 28.0 °F 50% 30.27 in 10.0 mi South 8.1 mph - N/A   Partly Cloudy
10:54 PM 41.0 °F 37.1 °F 28.0 °F 60% 30.26 in 10.0 mi SSE 5.8 mph - N/A   Scattered Clouds